Location: Boiro
(42.6475°N, 8.8834°W)
Time: 17:12:32
(UTC+01:00)

Tiros 1 despin weight - Pass Details

Date: 07 December 2021
Orbit: 592 x 641 km, 48.2° (Epoch: 20 January)

Event Time Altitude Azimuth Distance (km) Brightness Sun altitude
Rises 20:31:55 0° 283° (WNW) 2,824 ? -26.8°
Reaches altitude 10° 20:35:15 10° 256° (WSW) 1,922 ? -27.4°
Maximum altitude 20:37:23 13° 227° (SW) 1,709 ? -27.8°
Drops below altitude 10° 20:39:31 10° 198° (SSW) 1,924 ? -28.2°
Enters shadow 20:41:00 - 183° (S) 2,272 ? -28.4°
Sets 20:42:52 0° 171° (S) 2,830 - -28.8°
